Bismarck, ND

2:36 AM CDT on May 23, 2017 (GMT -0500)
Bismarck Municipal

Weather History for KBIS - July, 2012

Change the Weather History Date:

Thursday, July 26, 2012

  Actual Average Record
Temperature  
Mean Temperature 66 °F 72 °F  
Max Temperature 74 °F 86 °F 106 °F (1929)
Min Temperature 58 °F 58 °F 39 °F (1971)
Degree Days  
Heating Degree Days 0 0  
Month to date heating degree days 0 13  
Since 1 June heating degree days 33 106  
Since 1 July heating degree days 0 13  
Cooling Degree Days 1 7  
Month to date cooling degree days 290 165  
Year to date cooling degree days 399 265  
Since 1 June cooling degree days 394 248  
Growing Degree Days 16 (Base 50)    
Moisture  
Dew Point 54 °F    
Average Humidity 66    
Maximum Humidity 78    
Minimum Humidity 53    
Precipitation  
Precipitation T in 0.09 in 2.89 in (2001)
Month to date precipitation 2.63 2.47  
Year to date precipitation 9.78 11.11  
Snow  
Snow 0.00 in 0.00 in 0.00 in (2002)
Month to date snowfall 0.0 0.0  
Since 1 June snowfall 0.0 0.0  
Since 1 July snowfall 0.0 0.0  
Snow Depth 0.00 in    
Sea Level Pressure  
Sea Level Pressure 29.92 in    
Wind  
Wind Speed 12 mph (NW)    
Max Wind Speed 24 mph    
Max Gust Speed 33 mph    
Visibility 10 miles    
Events Rain    
T = Trace of Precipitation, MM = Missing Value Source: NWS Daily Summary

Daily Weather History Graph

Daily Weather History Graph

Search for Another Location

Airport or City:

Trip Planner

Search our weather history database for the weather conditions in past years. The results will help you decide how hot, cold, wet, or windy it might be!

Date:

Astronomy

Jul. 26, 2012 Rise Set
Actual Time 6:16 AM CDT 9:21 PM CDT
Civil Twilight 5:40 AM CDT 9:57 PM CDT
Nautical Twilight 4:53 AM CDT 10:44 PM CDT
Astronomical Twilight 3:56 AM CDT 11:40 PM CDT
Moon 3:09 PM CDT (7/26) 12:15 AM CDT (7/26)
Length of Visible Light 16h 17m
Length of Day
15h 05m
First Quarter, 54% of the Moon is Illuminated
Jul 26
First Quarter
Aug 1
Full
Aug 9
Last Quarter
Aug 17
New
Aug 24
First Quarter

Hourly Weather History & Observations

Time (CDT) Temp. Dew Point Humidity Pressure Visibility Wind Dir Wind Speed Gust Speed Precip Events Conditions
12:52 AM 68.0 °F 52.0 °F 56% 29.80 in 10.0 mi WNW 4.6 mph - N/A   Partly Cloudy
1:52 AM 64.9 °F 53.1 °F 65% 29.80 in 10.0 mi West 3.5 mph - N/A   Clear
2:52 AM 62.1 °F 54.0 °F 75% 29.80 in 10.0 mi Calm Calm - N/A   Clear
3:52 AM 61.0 °F 53.1 °F 75% 29.81 in 10.0 mi WSW 4.6 mph - N/A   Clear
4:52 AM 61.0 °F 52.0 °F 72% 29.82 in 10.0 mi WNW 8.1 mph - N/A   Clear
5:52 AM 61.0 °F 52.0 °F 72% 29.83 in 10.0 mi WNW 8.1 mph - N/A   Clear
6:52 AM 61.0 °F 52.0 °F 72% 29.85 in 10.0 mi West 9.2 mph - N/A   Overcast
7:52 AM 63.0 °F 54.0 °F 72% 29.86 in 10.0 mi West 8.1 mph - N/A   Overcast
8:52 AM 68.0 °F 55.9 °F 65% 29.86 in 10.0 mi NW 19.6 mph 25.3 mph N/A   Partly Cloudy
9:52 AM 69.1 °F 55.0 °F 61% 29.88 in 10.0 mi NNW 21.9 mph 29.9 mph N/A   Partly Cloudy
10:52 AM 71.1 °F 54.0 °F 55% 29.90 in 10.0 mi NW 19.6 mph 27.6 mph N/A   Scattered Clouds
11:52 AM 70.0 °F 53.1 °F 55% 29.92 in 10.0 mi NW 21.9 mph 27.6 mph N/A   Overcast
12:52 PM 71.1 °F 55.0 °F 57% 29.94 in 10.0 mi NNW 23.0 mph 29.9 mph N/A   Mostly Cloudy
1:52 PM 66.0 °F 57.9 °F 75% 29.95 in 10.0 mi NNW 21.9 mph 28.8 mph 0.00 in Rain Light Rain
2:52 PM 70.0 °F 55.9 °F 61% 29.96 in 10.0 mi North 20.7 mph 26.5 mph 0.00 in   Overcast
3:52 PM 73.9 °F 55.9 °F 53% 29.98 in 10.0 mi NNW 18.4 mph 28.8 mph N/A   Mostly Cloudy
4:52 PM 73.0 °F 55.0 °F 53% 29.99 in 10.0 mi NNW 15.0 mph 20.7 mph N/A   Mostly Cloudy
5:52 PM 72.0 °F 55.0 °F 55% 30.00 in 10.0 mi NNW 15.0 mph 23.0 mph N/A   Overcast
6:52 PM 73.0 °F 55.9 °F 55% 30.00 in 10.0 mi NNE 12.7 mph - N/A   Overcast
7:52 PM 70.0 °F 55.9 °F 61% 30.01 in 10.0 mi North 10.4 mph - N/A   Scattered Clouds
8:52 PM 70.0 °F 55.0 °F 59% 30.01 in 10.0 mi NNE 9.2 mph - N/A   Mostly Cloudy
9:52 PM 68.0 °F 55.9 °F 65% 30.03 in 10.0 mi NE 5.8 mph - N/A   Overcast
10:52 PM 64.0 °F 55.9 °F 75% 30.05 in 10.0 mi Calm Calm - N/A   Clear
11:52 PM 62.1 °F 55.9 °F 80% 30.06 in 10.0 mi Calm Calm - N/A   Clear